Regional Weather Roundup
Issued by NWS Portland, ME

Home | Current Version | Previous Version | Text Only | Print | Product List | Glossary On
Versions: 1 2 3 4 5 6 7 8 9 10 11 12 13 14 15 16 17 18 19 20 21 22 23 24 25 26 27 28 29 30 31 32 33 34 35 36 37 38 39 40 41 42 43 44 45 46 47 48 49 50
000
ASUS41 KGYX 241210
RWRGYX
WEATHER ROUNDUP FOR MAINE AND NEW HAMPSHIRE
NATIONAL WEATHER SERVICE GRAY ME
700 AM EST MON NOV 24 2014

MEZ002-005-006-010-012-015-018-020-021-024-026-027-029-241300-
MAINE

CITY           SKY/WX    TMP DP  RH WIND       PRES   REMARKS
PORTLAND       LGT RAIN  53  51  93 SE12      29.93F FOG
6HR MIN TEMP:  38; 6HR MAX TEMP:  53; 6HR PCP:  0.03;

SANFORD        CLOUDY    39  34  81 CALM      29.91F
BAR HARBOR     CLOUDY    50  50 100 S8        30.04F
WISCASSET      CLOUDY    51  50  96 VRB3      29.97F
6HR MIN TEMP:  32; 6HR MAX TEMP:  51;

ROCKLAND       CLOUDY    52  50  93 SE8       29.99F
FRYEBURG       RAIN      35  34  96 CALM      29.92F FOG
6HR MIN TEMP:  28; 6HR MAX TEMP:  35; 6HR PCP:  0.10;

LEWISTONAUBURN CLOUDY    36  34  93 CALM      29.93F
AUGUSTA        LGT RAIN  45  45 100 SE7       29.96F FOG
6HR MIN TEMP:  41; 6HR MAX TEMP:  45; 6HR PCP: TRACE;

WATERVILLE     CLOUDY    45  43  93 CALM      29.93F
BANGOR         CLOUDY    47  44  90 S12       30.00F
6HR MIN TEMP:  38; 6HR MAX TEMP:  47;

GREENVILLE       N/A     39  39 100 SE9G17    29.92F
6HR MIN TEMP:  36; 6HR MAX TEMP:  39;

MILLINOCKET    CLOUDY    33  31  92 CALM      30.01F FOG
6HR MIN TEMP:  33; 6HR MAX TEMP:  35;

HOULTON        CLOUDY    43  39  86 SE12G20   30.00F
6HR MIN TEMP:  39; 6HR MAX TEMP:  43;

PRESQUE ISLE   MOCLDY    37  32  81 S8        29.98F
6HR MIN TEMP:  37; 6HR MAX TEMP:  37;

FRENCHVILLE    CLOUDY    36  32  85 SE14      29.93F
6HR MIN TEMP:  34; 6HR MAX TEMP:  36;

CARIBOU        MOCLDY    38  34  85 SE10      29.98F
6HR MIN TEMP:  36; 6HR MAX TEMP:  38;

$$

NHZ002-005-008-009-011-012-014-241300-
NEW HAMPSHIRE

CITY           SKY/WX    TMP DP  RH WIND       PRES   REMARKS
PORTSMOUTH     RAIN      52  51  94 SE16      29.88F FOG
ROCHESTER      RAIN      51  49  92 SE10G17   29.88F FOG
6HR MIN TEMP:  41; 6HR MAX TEMP:  50; 6HR PCP:  0.16;

NASHUA         RAIN      40  39  96 CALM      29.85F FOG
MANCHESTER     RAIN      52  49  89 SE16      29.82F FOG
6HR MIN TEMP:  40; 6HR MAX TEMP:  52; 6HR PCP:  0.26;

CONCORD        RAIN      47  46  97 SE9       29.84F FOG
6HR MIN TEMP:  33; 6HR MAX TEMP:  47; 6HR PCP:  0.23;

LACONIA        CLOUDY    43  39  87 CALM      29.84F
PLYMOUTH       MIX PCPN  37  37 100 CALM      29.84F VSB 3/4
BERLIN         LGT RAIN  45  38  76 S10       29.85F
6HR MIN TEMP:  29; 6HR MAX TEMP:  47; 6HR PCP: TRACE;

WHITEFIELD     RAIN      48  43  82 S12       29.80S
6HR MIN TEMP:  31; 6HR MAX TEMP:  53; 6HR PCP:  0.05;

JAFFREY        LGT RAIN  48  47  96 SE10      29.78F
6HR MIN TEMP:  32; 6HR MAX TEMP:  48; 6HR PCP:  0.26;

LEBANON        LGT RAIN  44  41  89 VRB3      29.74F FOG
6HR MIN TEMP:  34; 6HR MAX TEMP:  44; 6HR PCP:  0.25;

MT WASHINGTON  RAIN      32  32 100 S68G78      N/A  VSB 0   WCI  12
6HR MIN TEMP:  31; 6HR MAX TEMP:  34; 6HR PCP:  0.05;

$$

VTZ005-007-008-241300-
VERMONT

CITY           SKY/WX    TMP DP  RH WIND       PRES   REMARKS
ST JOHNSBURY     N/A     36  35  96 MISG      29.75F
MONTPELIER     RAIN      45  50 100 S13       29.74F
BURLINGTON     LGT RAIN  52  46  80 S13G24    29.59F
$$

MAZ007-012-024-CTZ003-RIZ002-NYZ038-NYZ072-241300-
SOUTHERN NEW ENGLAND AND NY

CITY           SKY/WX    TMP DP  RH WIND       PRES   REMARKS
BOSTON         LGT RAIN  54  52  93 S17       29.88F FOG
WORCESTER      LGT RAIN  49  49 100 SE14G21   29.79F VSB 1/4
NANTUCKET      CLOUDY    56  51  84 SE23G32   29.94F
PROVIDENCE     HVY RAIN  56  55  97 SE21      29.87F FOG
HARTFORD       LGT RAIN  56  52  86 S15       29.71F FOG
ALBANY         DRZL/FOG  47  45  93 SW6       29.61F VSB 1
NEW YORK CITY  LGT RAIN  60  58  92 S23G39    29.71R FOG
$$

ANZ081-ANZ082-ANZ150-NHZ014-MEZ023>029-241300-
COASTAL MARINE OBSERVATIONS

STATION/POSITION TIME  TEMP    WIND        PRES    WAVE
                       AIR SEA DIR/SP/G            HT/PER
                 (UTC) (F)     (DEG/KT/KT) (MB)    (FT/S)
MOUNT DESERT ROC 1200   51                 1016.9F
MATINICUS ROCK   1200          150/ 23/ 25 1014.9F
PORTLAND WX BUOY 1150   53 50  140/ 17/ 19 1013.2F   3/ 4
WELLS            1100   50 45  160/  3/  4 1013.3F
ISLE OF SHOALS   1200   53     150/ 24/ 27 1011.5F
JEFFREYS LEDGE   1121      51                N/A     3/ 4
CASHES LEDGE BUO 1150   53 51  140/ 17/ 19 1014.6F   3/ 8
$$

.............KEY..............
   WCI - WIND CHILL
   TC  - TEMPERATURE IN CELSIUS
   VSB - VISIBILITY IN MILES
   HX  - HEAT INDEX
   FAIR- INDICATES FEW OR NO CLOUDS BELOW 12,000 FT, WITH NO
         SIGNIFICANT WEATHER AND/OR OBSTRUCTIONS TO VISIBILITY.




USA.gov is the U.S. government's official web portal to all federal, state and local government web resources and services.